Location: *
(58.4167°N, 22.5000°E)
Time: 05:03:03
(UTC+00:00)

SL-08 RB Rocket - Pass Details

Date: 22 September 2019
Orbit: 646 x 685 km, 97.9° (Epoch: 15 October)

Event Time Altitude Azimuth Distance (km) Brightness Sun altitude
Exits shadow 17:48:50 10° 142° (SE) 2,157 5.8 -10.9°
Reaches altitude 10° 17:48:53 10° 142° (SE) 2,134 5.8 -10.9°
Maximum altitude 17:53:25 53° 66° (ENE) 846 4.0 -11.5°
Drops below altitude 10° 17:57:59 10° 350° (N) 2,139 6.7 -12.0°
Sets 18:00:16 0° 346° (NNW) 3,055 7.6 -12.3°
